NOAA 16 DEB, 42400

Orbit data source: Space-Track

NOAA 16 DEB, 42400 is space debris in SSO originally from a launch on Thu, 21 Sep 2000 UTC launched from the Air Force Western Test Range (AFWTR). Debris objects in space refer to the collection of defunct objects orbiting the Earth. Examples of debris include non-operational satellites, rocket bodies, and fragments generated from explosions, collisions, or faulty payload assembly.

Loading next visibility...
Identifier
42400, 2000-055SU
Orbit
SSO
Country
Flag of USUS
Related business
Manufacturer
Unknown
Mission
Spacecraft
Bus & Motor
Unknown
Mass
Unknown
Launch date (UTC)
2000-09-21 (25 years ago)
Launch vehicle
Unknown
Launch site
Air Force Western Test Range (AFWTR)
Object type
Payload
Rocket body
Debris
Shape & HBR
Unknown shape, 0.1 m
Radar Cross Section
Small (<0.1 m²)

Expand to show TLE details & history
Last TLE update: 15 hours ago

TLE from 15 hours ago
0 NOAA 16 DEB
1 42400U 00055SU  25296.60111029  .00004108  00000-0  18128-2 0  9999
2 42400  98.6574 342.4451 0020281  11.7594 348.4054 14.23741192492933
Epoch: 2025-10-23T14:25Z
TLE epoch observation values (Epoch: 2025-10-23T14:25:35.929Z)
Latitude
-0.00003°
Longitude
93.78738°
Altitude
801.361 km
Speed
7.46 km/s
True Right ascension
22h 49m 46s
True Declination
0° 00' 00"
Sunlit
Object was in full shadow at epoch
Visualization orbit readout
Latitude
Unknown
Longitude
Unknown
Altitude
Unknown
Speed
Unknown
Apparent Right ascension
Unknown
Apparent Declination
Unknown
Sunlit
N/A
Visualization observer readout
Local Sidereal Time
00:24:09
Azimuth
Unknown
Elevation
Unknown
Doppler factor
Unknown
Orbital elements
Apogee altitude
824.457 km
Perigee altitude
795.301 km
Semi-major axis
7,188.016 km
Eccentricity
0.00203
Inclination
98.6574°
RAAN
342.4451°
Arg. of periapsis
11.7594°
True anomaly
348.35857°
Mean anomaly
348.4054°
Eccentric anomaly
348.382°
Mean motion
3.56147 °/min
Orbital period
101.08 mins
BSTAR
0.0018128
Loading maneuver chart data...
Computing Atmospheric mass density...
Loading historical data...
Loading historical data...
Loading historical data...
Loading historical data...
Loading historical data...
Loading historical data...
Loading historical data...

Documentation

Showing up to 5 results
|